Millville, NJ

3:33 PM EST on December 05, 2019 (GMT -0500)
Millville Municipal

Weather History for KMIV - October, 2019

Change the Weather History Date:

Monday, October 7, 2019

  Actual Average Record
Temperature  
Mean Temperature 74 °F -  
Max Temperature 82 °F 68 °F 89 °F (2007)
Min Temperature 64 °F 46 °F 32 °F (1954)
Cooling Degree Days 10    
Growing Degree Days 24 (Base 50)    
Moisture  
Dew Point 62 °F    
Average Humidity 71    
Maximum Humidity 84    
Minimum Humidity 52    
Precipitation  
Precipitation 0.00 in - - ()
Sea Level Pressure  
Sea Level Pressure 30.15 in    
Wind  
Wind Speed 6 mph (South)    
Max Wind Speed 17 mph    
Max Gust Speed 24 mph    
Visibility 10 miles    
Events      
Averages and records for this station are not official NWS values.
T = Trace of Precipitation, MM = Missing Value Source: NWS Daily Summary

Daily Weather History Graph

Daily Weather History Graph

Search for Another Location

Airport or City:

Astronomy

Oct. 07, 2019 Rise Set
Actual Time 7:01 AM EDT 6:33 PM EDT
Civil Twilight 6:35 AM EDT 7:00 PM EDT
Nautical Twilight 6:04 AM EDT 7:31 PM EDT
Astronomical Twilight 5:32 AM EDT 8:02 PM EDT
Moon 3:51 PM EDT (10/7) 12:54 AM EDT (10/7)
Length of Visible Light 12h 25m
Length of Day
11h 31m
Waxing Gibbous, 69% of the Moon is Illuminated
Oct 7
Waxing Gibbous
Oct 13
Full
Oct 21
Last Quarter
Oct 27
New
Nov 4
First Quarter

Hourly Weather History & Observations

Time (EDT) Temp. Heat Index Dew Point Humidity Pressure Visibility Wind Dir Wind Speed Gust Speed Precip Events Conditions
12:54 AM 70.0 °F - 62.1 °F 76% 30.23 in 10.0 mi Variable 4.6 mph - N/A   Overcast
1:54 AM 70.0 °F - 61.0 °F 73% 30.22 in 10.0 mi Variable 5.8 mph - N/A   Overcast
2:54 AM 70.0 °F - 61.0 °F 73% 30.20 in 10.0 mi South 5.8 mph - N/A   Overcast
3:54 AM 69.1 °F - 62.1 °F 78% 30.19 in 10.0 mi South 4.6 mph - N/A   Overcast
4:54 AM 69.1 °F - 62.1 °F 78% 30.19 in 10.0 mi SSW 5.8 mph - N/A   Overcast
5:54 AM 70.0 °F - 62.1 °F 76% 30.19 in 10.0 mi Variable 4.6 mph - N/A   Overcast
6:54 AM 69.1 °F - 62.1 °F 78% 30.19 in 10.0 mi Variable 4.6 mph - N/A   Overcast
7:54 AM 70.0 °F - 62.1 °F 76% 30.19 in 10.0 mi Variable 3.5 mph - N/A   Overcast
8:54 AM 72.0 °F - 62.1 °F 71% 30.19 in 10.0 mi SSW 8.1 mph - N/A   Clear
9:54 AM 75.0 °F - 61.0 °F 62% 30.19 in 10.0 mi Variable 6.9 mph - N/A   Clear
10:54 AM 75.9 °F - 61.0 °F 60% 30.18 in 10.0 mi SSW 9.2 mph - N/A   Scattered Clouds
11:54 AM 78.1 °F - 61.0 °F 56% 30.16 in 10.0 mi South 9.2 mph - N/A   Partly Cloudy
12:54 PM 80.1 °F 81.1 °F 61.0 °F 52% 30.13 in 10.0 mi Variable 6.9 mph 16.1 mph N/A   Partly Cloudy
1:54 PM 80.1 °F 81.1 °F 61.0 °F 52% 30.10 in 10.0 mi SSW 8.1 mph - N/A   Clear
2:54 PM 78.1 °F - 61.0 °F 56% 30.09 in 10.0 mi South 9.2 mph - N/A   Partly Cloudy
3:54 PM 75.9 °F - 61.0 °F 60% 30.08 in 10.0 mi South 9.2 mph 17.3 mph N/A   Clear
4:54 PM 75.0 °F - 63.0 °F 66% 30.07 in 10.0 mi South 9.2 mph 20.7 mph N/A   Clear
5:54 PM 73.9 °F - 64.0 °F 71% 30.07 in 10.0 mi Variable 5.8 mph - N/A   Clear
6:54 PM 71.1 °F - 64.9 °F 81% 30.07 in 10.0 mi SSE 8.1 mph - N/A   Clear
7:54 PM 71.1 °F - 64.0 °F 78% 30.08 in 10.0 mi Variable 5.8 mph - N/A   Clear
8:54 PM 70.0 °F - 64.9 °F 84% 30.10 in 10.0 mi Variable 4.6 mph - N/A   Clear
9:54 PM 70.0 °F - 64.9 °F 84% 30.10 in 10.0 mi Variable 3.5 mph - N/A   Clear
10:54 PM 71.1 °F - 64.9 °F 81% 30.13 in 10.0 mi WNW 9.2 mph - N/A   Overcast
11:54 PM 64.9 °F - 57.9 °F 78% 30.15 in 10.0 mi North 17.3 mph 24.2 mph N/A   Mostly Cloudy